Location: Newark
(14.9306°N, 3.4333°E)
Time: 10:04:09
(UTC+00:00)

First-Move - Pass Details

Date: 12 December 2019
Orbit: 576 x 669 km, 97.6° (Epoch: 19 January)

Event Time Altitude Azimuth Distance (km) Brightness Sun altitude
Rises 17:44:33 0° 177° (S) 3,000 ? -6.8°
Reaches altitude 10° 17:46:49 10° 182° (S) 2,088 ? -7.3°
Maximum altitude 17:51:18 55° 259° (W) 801 ? -8.3°
Drops below altitude 10° 17:55:44 10° 337° (NNW) 2,071 ? -9.3°
Sets 17:57:59 0° 342° (NNW) 2,973 ? -9.8°
